x

9449880 - Friday Harbor, Wa (frdw1) Weather Station

12:36 - Sun 23rd Jul 2017 All times are PDT. -7 hours from GMT.

  • Wind
    1mph, 1mph gusts
  • Sea Temp 52°f
  • Aire Temp 56°f
  • Sea Pressure 1019.3mb
  • 9449880 - Friday Harbor, Wa
  • 9449880 - Friday Harbor, Wa

More Historic Weather Station data

Upgrade to MSW Pro to gain access to the past 30 days of data for over 8000 Wavebouys and Weather Stations around the globe.

Join Pro

Comparision Forecast

View Surf forecast
   
dom 07/23 12:36 1 1 mph 1019.3mb 52f 56f
12:30  -  1 mph 1019.5mb 52f 57f
12:24  -  2 mph 1019.5mb 52f 57f
12:18 2 3 mph 1019.5mb 52f 57f
12:12 2 3 mph 1019.5mb 52f 57f
12:06 1 2 mph 1019.6mb 52f 57f
12:00  -  1 mph 1019.6mb 52f 57f
sáb 07/22 11:36 1 2 mph 1019.8mb 52f 57f
11:30  -  1 mph 1019.8mb 52f 56f
11:24  -  2 mph 1019.7mb 52f 56f
11:18 1 2 mph 1019.7mb 52f 56f
11:12 2 2 mph 1019.8mb 52f 56f
11:06 2 2 mph 1019.8mb 52f 57f
11:00 2 3 mph 1019.7mb 52f 56f
10:36 1 2 mph 1019.9mb 52f 60f
10:30  -  1 mph 1020mb 52f 61f
10:24 1 1 mph 1020mb 52f 61f
10:18  -  1 mph 1020mb 52f 62f
10:12  -  1 mph 1020mb 52f 61f
10:06  -  1 mph 1020.1mb 52f 60f
10:00  -  0 mph 1020.1mb 52f 60f
9:36  -  2 mph 1020.1mb 52f 62f
9:30 1 2 mph 1020.1mb 52f 62f
9:24  -  1 mph 1020mb 52f 63f
9:18  -  1 mph 1020mb 51f 62f
9:12 2 2 mph 1020mb 51f 62f
9:06  -  1 mph 1020mb 51f 62f
9:00  -  1 mph 1019.9mb 51f 64f
8:36 1 2 mph 1019.9mb 51f 63f
8:30  -  2 mph 1019.8mb 51f 65f
8:24  -  1 mph 1019.8mb 51f 65f
8:18 1 2 mph 1019.9mb 51f 65f
8:12  -  2 mph 1019.9mb 51f 65f
8:06 2 6 mph 1019.9mb 51f 66f
8:00 2 5 mph 1019.9mb 51f 66f
7:36 2 6 mph 1019.9mb 51f 67f
7:30 2 5 mph 1019.9mb 51f 67f
7:24 3 6 mph 1019.9mb 51f 67f
7:18 2 5 mph 1019.9mb 51f 67f
7:12 2 5 mph 1020mb 51f 67f
7:06  -  3 mph 1020mb 51f 68f
7:00 2 3 mph 1020.1mb 51f 68f
6:36 3 8 mph 1020.2mb 51f 68f
6:30 5 7 mph 1020.2mb 51f 68f
6:24 5 6 mph 1020.3mb 51f 68f
6:18 2 8 mph 1020.3mb 51f 67f
6:12 2 7 mph 1020.4mb 51f 67f
6:06 3 7 mph 1020.4mb 51f 68f
6:00 5 10 mph 1020.4mb 51f 68f
5:36 2 6 mph 1020.6mb 51f 67f
5:30 3 8 mph 1020.7mb 51f 67f
5:24 2 6 mph 1020.7mb 51f 67f
5:18 3 7 mph 1020.8mb 51f 67f
5:12 3 6 mph 1020.7mb 51f 67f
5:06 2 6 mph 1020.8mb 51f 67f
5:00 2 7 mph 1020.9mb 51f 67f
4:36 6 8 mph 1021.1mb 51f 67f
4:30 6 9 mph 1021.1mb 51f 68f
4:24 3 6 mph 1021.2mb 51f 68f
4:18 5 7 mph 1021.3mb 51f 67f
4:12 3 9 mph 1021.3mb 51f 67f
4:06 3 8 mph 1021.3mb 51f 67f
4:00 5 9 mph 1021.3mb 51f 67f
3:36 5 11 mph 1021.6mb 51f 66f
3:30 3 9 mph 1021.7mb 51f 66f
3:24 3 8 mph 1021.7mb 51f 67f
3:18 5 9 mph 1021.7mb 51f 67f
3:12 3 9 mph 1021.7mb 51f 67f
3:06 5 8 mph 1021.8mb 51f 67f
3:00 6 9 mph 1021.8mb 51f 67f
2:36 8 10 mph 1021.8mb 51f 67f
2:30 7 9 mph 1021.8mb 51f 67f
2:24 6 8 mph 1021.9mb 51f 67f
2:18 6 8 mph 1021.9mb 52f 68f
2:12 6 11 mph 1022mb 52f 67f
2:06 7 10 mph 1022mb 52f 67f
2:00 6 9 mph 1022.1mb 52f 67f
1:36 5 7 mph 1022.2mb 52f 67f
1:30 3 6 mph 1022.3mb 52f 66f
1:24 3 8 mph 1022.3mb 52f 65f
1:18 3 7 mph 1022.4mb 52f 66f
1:12 5 6 mph 1022.4mb 52f 65f
1:06 3 5 mph 1022.4mb 52f 65f
1:00 3 6 mph 1022.4mb 52f 65f
12:36 2 6 mph 1022.5mb 52f 66f
12:30 3 5 mph 1022.5mb 52f 65f
12:24 3 5 mph 1022.5mb 52f 66f
12:18 3 6 mph 1022.5mb 52f 65f
12:12 5 5 mph 1022.5mb 52f 65f
12:06 3 5 mph 1022.6mb 52f 64f
12:00 3 5 mph 1022.5mb 52f 65f
11:36 3 3 mph 1022.6mb 52f 63f
11:30 3 3 mph 1022.7mb 52f 63f
11:24 3 3 mph 1022.7mb 52f 63f
11:18 2 3 mph 1022.7mb 52f 63f
11:12 2 3 mph 1022.6mb 52f 62f
11:06 2 3 mph 1022.6mb 52f 61f
11:00 2 3 mph 1022.6mb 52f 61f
10:36 2 2 mph 1022.6mb 52f 60f
10:30 1 2 mph 1022.6mb 52f 60f
10:24 2 3 mph 1022.6mb 52f 60f
10:18 2 3 mph 1022.6mb 52f 60f
10:12 2 2 mph 1022.6mb 52f 60f
10:06 2 2 mph 1022.7mb 52f 59f
10:00 1 1 mph 1022.7mb 52f 59f
9:36  -  1 mph 1022.7mb 52f 59f
9:30  -  1 mph 1022.7mb 52f 59f
9:24  -  1 mph 1022.8mb 52f 59f
9:18  -  2 mph 1022.8mb 52f 58f
9:12  -  3 mph 1022.7mb 52f 58f
9:06 1 3 mph 1022.6mb 52f 58f
9:00 1 3 mph 1022.7mb 52f 58f
8:36  -  1 mph 1022.8mb 52f 57f
8:30  -  3 mph 1022.7mb 52f 57f
8:24 2 3 mph 1022.8mb 52f 56f
8:18  -  1 mph 1022.6mb 52f 57f
8:12  -  1 mph 1022.6mb 52f 56f
8:06  -  1 mph 1022.5mb 52f 57f
8:00  -  1 mph 1022.6mb 52f 57f
7:36  -  1 mph 1022.4mb 52f 57f
7:30  -  2 mph 1022.3mb 52f 57f
7:24 1 2 mph 1022.2mb 52f 56f
7:18 1 1 mph 1022.2mb 52f 56f
7:12  -  1 mph 1022.2mb 52f 56f
7:06  -  0 mph 1022.1mb 52f 56f
7:00  -  0 mph 1022.1mb 52f 56f
6:36  -  0 mph 1022mb 52f 56f
6:30  -  1 mph 1021.9mb 52f 56f
6:24  -  2 mph 1021.8mb 52f 55f
6:18 2 3 mph 1021.8mb 52f 55f
6:12 2 2 mph 1021.8mb 52f 55f
6:06 1 2 mph 1021.7mb 52f 55f
6:00  -  1 mph 1021.7mb 52f 55f
5:36  -  2 mph 1021.6mb 52f 55f
5:30 2 2 mph 1021.5mb 52f 54f
5:24  -  0 mph 1021.6mb 52f 56f
5:18  -  1 mph 1021.6mb 52f 56f
5:12  -  1 mph 1021.6mb 52f 56f
5:06 1 2 mph 1021.6mb 52f 55f
5:00  -  0 mph 1021.6mb 52f 56f
4:36 1 2 mph 1021.4mb 52f 55f
4:30 1 2 mph 1021.3mb 52f 55f
4:24 1 2 mph 1021.3mb 52f 56f
4:18  -  2 mph 1021.2mb 52f 55f
4:12 1 2 mph 1021.2mb 52f 55f
4:06  -  2 mph 1021.2mb 52f 56f
4:00 1 2 mph 1021.1mb 52f 56f
3:36  -  1 mph 1021mb 52f 56f
3:30  -  1 mph 1021mb 52f 56f
3:24  -  2 mph 1020.8mb 52f 56f
3:18  -  2 mph 1020.7mb 52f 56f
3:12 1 2 mph 1020.6mb 52f 56f
3:06  -  1 mph 1020.7mb 52f 55f
3:00  -  1 mph 1020.6mb 52f 55f
2:36 3 5 mph 1020.6mb 52f 54f
2:30 3 5 mph 1020.6mb 52f 54f
2:24 3 3 mph 1020.7mb 52f 54f
2:18 2 2 mph 1020.6mb 52f 55f
2:12 1 2 mph 1020.6mb 52f 55f
2:06  -  0 mph 1020.5mb 52f 55f
2:00  -  0 mph 1020.6mb 52f 55f
1:36  -  0 mph 1020.5mb 52f 58f
1:30  -  0 mph 1020.5mb 52f 58f
1:24  -  3 mph 1020.6mb 52f 58f
1:18 2 3 mph 1020.7mb 52f 57f
1:12  -  3 mph 1020.7mb 52f 56f
1:06 2 3 mph 1020.7mb 52f 56f
1:00 1 2 mph 1020.7mb 52f 55f
12:54 1 2 mph 1020.8mb 52f 55f
12:48  -  2 mph 1020.6mb 52f 55f
12:36 2 3 mph 1020.6mb 52f 55f
12:30 3 3 mph 1020.5mb 52f 54f
12:24 3 5 mph 1020.6mb 52f 55f
12:18 3 5 mph 1020.5mb 52f 56f
12:12 5 5 mph 1020.5mb 52f 56f
12:06 3 3 mph 1020.5mb 52f 57f
12:00 1 1 mph 1020.6mb 52f 58f
vie 07/21 11:54 2 2 mph 1020.6mb 52f 57f
11:48  -  1 mph 1020.7mb 52f 57f
11:36  -  1 mph 1020.6mb 52f 57f
11:30  -  2 mph 1020.5mb 52f 57f
11:24 1 2 mph 1020.6mb 52f 56f
11:18  -  0 mph 1020.4mb 52f 56f
11:12  -  0 mph 1020.4mb 52f 56f
11:06  -  0 mph 1020.4mb 52f 57f
11:00  -  0 mph 1020.4mb 52f 58f
10:54  -  0 mph 1020.4mb 52f 57f
10:36  -  1 mph 1020.5mb 52f 57f
10:30  -  1 mph 1020.5mb 52f 57f
10:24  -  1 mph 1020.5mb 52f 58f
10:18  -  1 mph 1020.4mb 52f 58f
10:12  -  1 mph 1020.5mb 52f 58f
10:06  -  1 mph 1020.6mb 52f 58f
10:00  -  2 mph 1020.7mb 52f 58f
9:54  -  0 mph 1020.7mb 52f 58f
9:48  -  2 mph 1020.8mb 52f 58f
9:36 1 2 mph 1020.7mb 52f 57f
9:30  -  1 mph 1020.7mb 52f 59f
9:24  -  1 mph 1020.8mb 52f 59f
9:18  -  2 mph 1020.8mb 52f 59f
9:12  -  0 mph 1020.7mb 52f 59f
9:06  -  0 mph 1020.5mb 52f 59f
9:00  -  2 mph 1020.5mb 52f 59f
8:54 2 3 mph 1020.5mb 52f 58f
8:48  -  1 mph 1020.5mb 52f 60f
8:36  -  1 mph 1020.5mb 52f 60f
8:30  -  1 mph 1020.6mb 52f 60f
8:24  -  1 mph 1020.6mb 52f 59f
8:18  -  1 mph 1020.6mb 52f 59f
8:12 1 2 mph 1020.7mb 52f 60f
8:06  -  1 mph 1020.7mb 52f 61f
8:00  -  2 mph 1020.8mb 52f 61f
7:54 1 2 mph 1020.7mb 51f 60f
7:48 2 2 mph 1020.7mb 51f 60f
7:36  -  2 mph 1020.6mb 51f 60f
7:30 2 2 mph 1020.8mb 51f 60f
7:24  -  1 mph 1020.8mb 51f 62f
7:18  -  0 mph 1020.9mb 51f 63f
7:12  -  1 mph 1020.9mb 51f 63f
7:06 1 3 mph 1020.9mb 51f 62f
7:00 2 3 mph 1020.8mb 51f 61f
6:54 1 2 mph 1020.8mb 51f 62f
6:48  -  1 mph 1020.7mb 51f 62f
6:36 2 5 mph 1020.8mb 51f 61f
6:30  -  2 mph 1020.7mb 51f 64f
6:24 2 5 mph 1020.7mb 51f 64f
6:18 3 5 mph 1020.7mb 51f 64f
6:12 3 6 mph 1020.6mb 51f 64f
6:06 3 6 mph 1020.7mb 51f 64f
6:00 3 8 mph 1020.9mb 51f 63f
5:54 6 7 mph 1020.8mb 51f 63f
5:48 3 6 mph 1020.9mb 51f 64f
5:36 3 5 mph 1021mb 51f 63f
5:30 2 3 mph 1021mb 51f 64f
5:24 1 3 mph 1021.1mb 51f 64f
5:18 2 5 mph 1021.1mb 51f 64f
5:12 3 6 mph 1021.1mb 51f 63f
5:06 5 6 mph 1021.1mb 51f 63f
5:00 5 6 mph 1021.1mb 51f 64f
4:54 5 6 mph 1021.2mb 51f 63f
4:48 3 6 mph 1021.2mb 51f 64f
4:36 5 7 mph 1021.2mb 51f 63f
4:30 5 8 mph 1021.2mb 51f 63f
4:24 3 7 mph 1021.2mb 51f 64f
4:18 5 8 mph 1021.3mb 51f 63f
4:12 6 7 mph 1021.3mb 51f 63f
4:06 3 6 mph 1021.3mb 51f 64f
4:00 1 5 mph 1021.3mb 51f 63f
3:54  -  2 mph 1021.3mb 51f 63f
3:48 1 2 mph 1021.3mb 51f 63f
3:36 2 2 mph 1021.3mb 51f 63f
3:30 1 2 mph 1021.3mb 51f 63f
3:24 1 2 mph 1021.3mb 51f 64f
3:18 2 2 mph 1021.3mb 51f 64f
3:12 1 2 mph 1021.3mb 51f 64f
3:06 2 3 mph 1021.2mb 51f 64f
3:00 2 3 mph 1021.3mb 51f 63f
2:54 2 2 mph 1021.2mb 51f 65f
2:48 1 2 mph 1021.3mb 51f 65f
2:36 3 3 mph 1021.2mb 51f 63f
2:30 2 2 mph 1021.2mb 51f 64f
2:24 2 2 mph 1021.3mb 51f 64f
2:18 2 2 mph 1021.3mb 51f 64f
2:12 2 2 mph 1021.3mb 51f 64f
2:06 2 3 mph 1021.3mb 51f 64f
2:00 2 2 mph 1021.3mb 51f 64f
1:54 2 3 mph 1021.3mb 52f 64f
1:48 2 3 mph 1021.4mb 52f 64f
1:36 2 3 mph 1021.3mb 51f 65f
1:30 2 3 mph 1021.4mb 51f 65f
1:24 3 5 mph 1021.4mb 52f 64f
1:18 3 5 mph 1021.4mb 52f 63f
1:12 3 6 mph 1021.4mb 52f 63f
1:06 5 6 mph 1021.5mb 52f 63f
1:00 3 6 mph 1021.5mb 52f 63f
12:54 5 6 mph 1021.5mb 52f 63f
12:48 3 6 mph 1021.4mb 52f 62f
12:36 3 5 mph 1021.5mb 53f 63f
12:30 5 5 mph 1021.5mb 53f 62f
12:24 5 6 mph 1021.5mb 53f 62f
12:18 6 7 mph 1021.6mb 53f 62f
12:12 3 5 mph 1021.6mb 53f 62f
12:06 5 6 mph 1021.6mb 53f 61f
12:00 3 6 mph 1021.6mb 53f 62f
11:54 3 6 mph 1021.7mb 53f 62f
11:48 2 6 mph 1021.6mb 53f 62f
11:36 5 6 mph 1021.6mb 53f 61f
11:30 5 6 mph 1021.6mb 53f 62f
11:24 5 7 mph 1021.5mb 53f 62f
11:18 6 7 mph 1021.5mb 53f 62f
11:12 6 7 mph 1021.5mb 53f 62f
11:06 6 8 mph 1021.4mb 53f 62f
11:00 3 7 mph 1021.4mb 53f 62f
10:54 1 3 mph 1021.4mb 53f 60f
10:48 2 5 mph 1021.3mb 53f 58f
10:36 5 6 mph 1021.3mb 53f 57f
10:30 3 5 mph 1021.3mb 53f 56f
10:24 5 6 mph 1021.3mb 53f 56f
10:18 3 6 mph 1021.3mb 53f 56f
10:12 5 6 mph 1021.3mb 53f 56f
10:06 3 5 mph 1021.3mb 53f 56f
10:00 3 5 mph 1021.2mb 53f 56f
9:54 2 3 mph 1021.2mb 53f 56f
9:48 3 3 mph 1021.1mb 52f 56f
9:36  -  1 mph 1021.1mb 53f 58f
9:30 1 3 mph 1021.1mb 53f 58f
9:24 1 5 mph 1021.1mb 52f 57f
9:18  -  2 mph 1021.1mb 52f 56f
9:12 3 5 mph 1021.2mb 53f 56f
9:06 3 6 mph 1021.2mb 53f 55f
9:00 6 8 mph 1021.1mb 53f 55f
8:54 3 5 mph 1021mb 53f 55f
8:48 1 3 mph 1021mb 53f 55f
8:36  -  2 mph 1021mb 53f 55f
8:30 3 5 mph 1021mb 53f 55f
8:24 2 3 mph 1021mb 53f 55f
8:18 2 5 mph 1021mb 53f 55f
8:12 1 3 mph 1020.9mb 53f 54f
8:06 3 6 mph 1020.9mb 53f 54f
8:00 2 3 mph 1020.9mb 53f 54f
7:54 2 3 mph 1020.8mb 53f 54f
7:48 3 6 mph 1020.9mb 53f 54f
7:36 1 3 mph 1020.9mb 53f 54f
7:30 1 2 mph 1020.8mb 53f 54f
7:24  -  2 mph 1020.8mb 53f 54f
7:18 2 3 mph 1020.8mb 53f 53f
7:12 2 5 mph 1020.7mb 53f 53f
7:06 5 5 mph 1020.7mb 53f 53f
7:00 3 3 mph 1020.7mb 53f 53f
6:54 1 2 mph 1020.6mb 53f 53f
6:48  -  1 mph 1020.5mb 53f 53f
6:36  -  0 mph 1020.4mb 53f 53f
6:30  -  1 mph 1020.4mb 53f 53f
6:24  -  1 mph 1020.3mb 53f 53f
6:18  -  1 mph 1020.3mb 53f 52f
6:12 3 5 mph 1020.3mb 53f 52f
6:06 3 3 mph 1020.2mb 53f 52f
6:00  -  2 mph 1020.2mb 53f 53f
5:54  -  0 mph 1020.2mb 53f 53f
5:48  -  1 mph 1020.1mb 53f 53f
5:36  -  2 mph 1020.1mb 53f 52f
5:30  -  2 mph 1020.2mb 53f 52f
5:24 1 1 mph 1020.2mb 53f 52f
5:18 1 2 mph 1020.2mb 53f 52f
5:12 1 2 mph 1020.1mb 53f 52f
5:06 1 2 mph 1020.1mb 53f 52f
5:00  -  1 mph 1020.1mb 53f 53f
4:54  -  1 mph 1020.1mb 53f 53f
4:48 1 3 mph 1020.1mb 53f 53f
4:36  -  2 mph 1020.1mb 53f 53f
4:30 1 2 mph 1020mb 53f 53f
4:24 1 2 mph 1020mb 53f 52f
4:18  -  1 mph 1020mb 53f 52f
4:12  -  1 mph 1020.1mb 53f 52f
4:06  -  1 mph 1020.2mb 53f 52f
4:00 1 2 mph 1020.2mb 53f 52f
3:54 1 2 mph 1020.1mb 53f 52f
3:48 1 2 mph 1020.1mb 53f 52f
3:36  -  1 mph 1020.1mb 53f 53f
3:30 2 3 mph 1020.2mb 53f 53f
3:24  -  1 mph 1020.2mb 53f 53f
3:18  -  1 mph 1020.2mb 53f 53f
3:12  -  0 mph 1020.1mb 53f 53f
3:06  -  1 mph 1020.2mb 53f 53f
3:00  -  0 mph 1020.2mb 53f 53f
2:54  -  0 mph 1020.2mb 53f 53f
2:48 1 2 mph 1020.1mb 53f 53f
2:36  -  0 mph 1020.1mb 53f 53f
2:30  -  2 mph 1020.1mb 53f 53f
2:24 1 2 mph 1020.1mb 53f 53f
2:18  -  1 mph 1020.1mb 53f 53f
2:12  -  1 mph 1020.1mb 53f 53f
2:06 1 3 mph 1020mb 53f 53f
2:00 3 5 mph 1020.1mb 53f 53f
1:54 1 2 mph 1020.1mb 53f 53f
1:48 1 2 mph 1020.2mb 53f 53f
1:36  -  2 mph 1020.2mb 53f 53f
1:30  -  1 mph 1020.1mb 53f 53f
1:24 1 3 mph 1020.2mb 53f 54f
1:18 1 3 mph 1020.2mb 53f 54f
1:12 1 2 mph 1020.1mb 53f 54f
1:06 1 3 mph 1020.1mb 53f 54f
1:00 3 6 mph 1020.2mb 53f 54f
12:54 5 7 mph 1020.1mb 53f 54f
12:48 5 6 mph 1020.1mb 53f 54f
12:36 1 3 mph 1020.1mb 53f 54f
12:30  -  2 mph 1020.1mb 53f 54f
12:24 2 5 mph 1020.2mb 53f 55f
12:18 1 2 mph 1020.2mb 53f 54f
12:12  -  1 mph 1020.2mb 53f 54f
12:06  -  2 mph 1020.2mb 53f 54f
12:00  -  1 mph 1020.2mb 53f 54f
jue 07/20 11:54 1 2 mph 1020.1mb 53f 54f
11:48  -  1 mph 1020.1mb 53f 54f
11:36 1 2 mph 1020.1mb 53f 55f
11:30 1 2 mph 1020.1mb 53f 55f
11:24 2 5 mph 1020.1mb 53f 55f
11:18 2 3 mph 1020.1mb 53f 55f
11:12 2 5 mph 1020.1mb 53f 55f
11:06 2 6 mph 1020.2mb 53f 55f
11:00 5 6 mph 1020.2mb 53f 55f
10:54 3 6 mph 1020.1mb 53f 56f
10:48 1 3 mph 1020.1mb 53f 55f
10:36 1 2 mph 1020.2mb 53f 55f
10:30 1 2 mph 1020.3mb 53f 55f
10:24  -  2 mph 1020.3mb 53f 55f
10:18 1 2 mph 1020.3mb 53f 55f
10:12 1 2 mph 1020.2mb 53f 56f
10:06 2 3 mph 1020.2mb 53f 56f
10:00 1 2 mph 1020.1mb 53f 57f
9:54  -  3 mph 1020.1mb 53f 57f
9:48 2 6 mph 1020.1mb 53f 57f
9:36 5 7 mph 1019.9mb 53f 59f
9:30 6 7 mph 1019.9mb 53f 59f
9:24 2 7 mph 1019.9mb 53f 59f
9:18 3 7 mph 1019.9mb 53f 60f
9:12 3 9 mph 1019.8mb 53f 60f
9:06 7 13 mph 1019.8mb 53f 60f
9:00 8 13 mph 1019.8mb 53f 60f
8:54 6 9 mph 1019.8mb 53f 59f
8:48 6 9 mph 1019.8mb 53f 60f
8:36 7 8 mph 1019.7mb 53f 60f
8:30 6 6 mph 1019.7mb 53f 60f
8:24 3 5 mph 1019.7mb 53f 60f
8:18 5 5 mph 1019.7mb 53f 61f
8:12 5 7 mph 1019.7mb 53f 61f
8:06 3 5 mph 1019.7mb 53f 61f
8:00 2 3 mph 1019.8mb 53f 61f
7:54 3 6 mph 1019.8mb 53f 61f
7:48 3 6 mph 1019.8mb 53f 61f
7:36 5 7 mph 1019.8mb 53f 62f
7:30 7 9 mph 1019.8mb 53f 62f
7:24 6 9 mph 1019.8mb 53f 62f
7:18 7 9 mph 1019.8mb 53f 62f
7:12 9 11 mph 1019.8mb 53f 63f
7:06 8 11 mph 1019.8mb 53f 63f
7:00 9 11 mph 1019.8mb 53f 63f
6:54 11 14 mph 1019.8mb 53f 63f
6:48 11 15 mph 1019.8mb 53f 63f
6:36 11 17 mph 1019.8mb 54f 64f
6:30 15 16 mph 1019.9mb 54f 64f
6:24 15 17 mph 1019.9mb 54f 64f
6:18 15 18 mph 1019.8mb 54f 65f
6:12 14 17 mph 1019.9mb 54f 64f
6:06 14 17 mph 1019.8mb 53f 64f
6:00 15 18 mph 1019.8mb 53f 65f
5:54 13 18 mph 1019.9mb 53f 65f
5:48 13 16 mph 1019.9mb 52f 65f
5:36 13 16 mph 1019.9mb 52f 65f
5:30 11 17 mph 1019.9mb 52f 66f
5:24 14 18 mph 1019.9mb 52f 66f
5:18 16 22 mph 1019.9mb 52f 66f
5:12 17 23 mph 1019.9mb 53f 66f
5:06 14 18 mph 1019.9mb 53f 66f
5:00 15 20 mph 1020mb 53f 66f
4:54 15 17 mph 1020mb 52f 66f
4:48 15 20 mph 1020.1mb 52f 66f
4:36 16 18 mph 1020.2mb 52f 65f
4:30 16 20 mph 1020.2mb 52f 65f
4:24 16 20 mph 1020.2mb 52f 65f
4:18 15 21 mph 1020.2mb 52f 65f
4:12 16 20 mph 1020.3mb 52f 65f
4:06 15 23 mph 1020.4mb 52f 65f
4:00 16 22 mph 1020.4mb 52f 64f
3:54 18 23 mph 1020.3mb 52f 64f
3:48 18 23 mph 1020.4mb 52f 64f
3:36 20 24 mph 1020.3mb 52f 65f
3:30 17 22 mph 1020.3mb 52f 65f
3:24 17 22 mph 1020.3mb 52f 65f
3:18 16 22 mph 1020.3mb 52f 65f
3:12 20 24 mph 1020.3mb 52f 65f
3:06 20 24 mph 1020.3mb 52f 65f
3:00 16 24 mph 1020.4mb 52f 65f
2:54 14 21 mph 1020.4mb 53f 65f
2:48 16 21 mph 1020.4mb 53f 65f
2:36 14 22 mph 1020.4mb 53f 65f
2:30 14 21 mph 1020.4mb 52f 65f
2:24 11 17 mph 1020.5mb 52f 64f
2:18 9 17 mph 1020.5mb 53f 65f
2:12 7 10 mph 1020.5mb 53f 63f
2:06 6 13 mph 1020.6mb 53f 63f
2:00 8 10 mph 1020.6mb 52f 62f
1:54 6 9 mph 1020.6mb 52f 62f
1:48 8 13 mph 1020.6mb 52f 61f
1:36 8 11 mph 1020.6mb 52f 61f
1:30 9 14 mph 1020.6mb 52f 61f
1:24 9 14 mph 1020.6mb 53f 61f
1:18 9 14 mph 1020.6mb 53f 61f
1:12 9 13 mph 1020.6mb 53f 61f
1:06 9 13 mph 1020.5mb 53f 61f
1:00 9 14 mph 1020.5mb 53f 62f
12:54 8 11 mph 1020.4mb 53f 62f
12:48 9 15 mph 1020.4mb 53f 62f
12:36 8 14 mph 1020.3mb 53f 62f
12:30 9 13 mph 1020.2mb 53f 62f
12:24 8 13 mph 1020.2mb 53f 62f
12:18 8 13 mph 1020.2mb 54f 62f
12:12 7 9 mph 1020.1mb 54f 62f
12:06 8 15 mph 1020mb 54f 62f
12:00 8 16 mph 1019.9mb 55f 62f
11:54 9 16 mph 1019.9mb 54f 62f
11:48 13 16 mph 1019.8mb 54f 62f
11:36 13 17 mph 1019.8mb 54f 62f
11:30 13 17 mph 1019.8mb 54f 61f
11:24 11 16 mph 1019.7mb 54f 61f
11:18 10 15 mph 1019.7mb 54f 62f
11:12 11 16 mph 1019.6mb 54f 61f
11:06 10 16 mph 1019.5mb 54f 61f
11:00 11 16 mph 1019.5mb 54f 61f
10:54 11 16 mph 1019.4mb 54f 61f
10:48 9 13 mph 1019.4mb 54f 61f
10:36 6 10 mph 1019.3mb 54f 61f
10:30 6 8 mph 1019.2mb 54f 60f
10:24 6 9 mph 1019.2mb 54f 60f
10:18 6 10 mph 1019.2mb 54f 60f
10:12 6 9 mph 1019.1mb 54f 59f
10:06 6 11 mph 1019.1mb 54f 59f
10:00 6 8 mph 1019.1mb 54f 59f
9:54 7 9 mph 1019.1mb 53f 59f
9:48 7 9 mph 1019.2mb 53f 59f
9:36 6 8 mph 1019.2mb 53f 58f
9:30 6 9 mph 1019.2mb 53f 59f
9:24 6 7 mph 1019.2mb 53f 59f
9:18 6 7 mph 1019.2mb 53f 58f
9:12 6 7 mph 1019.1mb 53f 58f
9:06 6 8 mph 1019.1mb 53f 58f
9:00 6 6 mph 1019.1mb 53f 58f
8:54 1 2 mph 1019.1mb 53f 58f
8:48  -  3 mph 1019.1mb 53f 58f
8:36 3 6 mph 1019mb 53f 58f
8:30 2 5 mph 1018.9mb 53f 58f
8:24  -  2 mph 1018.9mb 53f 58f
8:18 2 5 mph 1018.8mb 54f 58f
8:12 3 6 mph 1018.7mb 54f 58f
8:06  -  2 mph 1018.6mb 54f 58f
8:00 2 3 mph 1018.6mb 54f 58f
7:54 2 5 mph 1018.5mb 54f 58f
7:48  -  2 mph 1018.4mb 54f 58f
7:36 2 5 mph 1018.4mb 54f 58f
7:30 3 5 mph 1018.4mb 54f 58f
7:24 3 5 mph 1018.4mb 54f 58f
7:18 5 8 mph 1018.4mb 54f 58f
7:12 5 7 mph 1018.3mb 54f 58f
7:06 3 6 mph 1018.3mb 54f 58f
7:00 6 7 mph 1018.3mb 54f 58f
6:54 2 6 mph 1018.2mb 54f 58f
6:48 5 8 mph 1018.2mb 54f 58f
6:36 7 9 mph 1018.1mb 54f 58f
6:30 5 6 mph 1018.1mb 54f 58f
6:24 6 7 mph 1018.1mb 54f 58f
6:18 2 5 mph 1018mb 54f 58f
6:12 2 5 mph 1018mb 54f 57f
6:06 2 6 mph 1017.9mb 54f 57f
6:00 5 7 mph 1017.9mb 54f 57f
5:54 6 9 mph 1017.8mb 54f 57f
5:48 9 10 mph 1017.8mb 54f 57f
5:36 6 8 mph 1017.7mb 54f 57f
5:30 6 9 mph 1017.7mb 54f 57f
5:24 7 9 mph 1017.6mb 54f 57f
5:18 6 8 mph 1017.6mb 54f 56f
5:12 7 8 mph 1017.5mb 54f 57f
5:06 8 9 mph 1017.5mb 54f 57f
5:00 7 8 mph 1017.5mb 54f 56f
4:54 7 9 mph 1017.4mb 54f 56f
4:48 8 9 mph 1017.3mb 54f 56f
4:36 6 7 mph 1017.2mb 54f 56f
4:30 6 7 mph 1017.1mb 54f 56f
4:24 6 7 mph 1017.1mb 54f 56f
4:18 5 6 mph 1017mb 54f 57f
4:12 5 7 mph 1016.9mb 54f 56f
4:06 7 8 mph 1016.8mb 54f 57f
4:00 5 6 mph 1016.7mb 54f 57f
3:54 5 6 mph 1016.7mb 54f 58f
3:48 3 7 mph 1016.6mb 54f 58f
3:36 2 5 mph 1016.6mb 54f 58f
3:30 2 5 mph 1016.6mb 54f 58f
3:24 3 5 mph 1016.5mb 54f 58f
3:18  -  1 mph 1016.4mb 54f 58f
3:12  -  2 mph 1016.5mb 54f 58f
3:06 1 2 mph 1016.5mb 54f 58f
3:00 3 3 mph 1016.4mb 54f 59f
2:54 5 6 mph 1016.4mb 54f 59f
2:48 5 6 mph 1016.3mb 54f 59f
2:36 6 8 mph 1016.3mb 54f 59f
2:30 6 9 mph 1016.2mb 54f 59f
2:24 7 10 mph 1016.2mb 54f 58f
2:18 7 10 mph 1016.3mb 54f 58f
2:12 8 10 mph 1016.3mb 54f 59f
2:06 5 8 mph 1016.3mb 54f 58f
2:00 8 10 mph 1016.3mb 54f 58f
1:54 10 13 mph 1016.4mb 54f 58f
1:48 7 9 mph 1016.4mb 54f 58f
1:36 6 9 mph 1016.2mb 54f 58f
1:30 8 10 mph 1016.2mb 54f 58f
1:24 8 10 mph 1016.1mb 54f 59f
1:18 5 10 mph 1016.1mb 54f 60f
1:12 8 11 mph 1016.2mb 54f 60f
1:06 6 8 mph 1016.1mb 54f 61f
1:00 2 5 mph 1016.1mb 54f 61f
12:54 2 6 mph 1016.1mb 54f 62f
12:48 2 6 mph 1016.1mb 54f 62f
12:36 6 10 mph 1016mb 54f 63f
12:30 6 9 mph 1016mb 54f 64f
12:24 5 8 mph 1015.9mb 54f 64f
12:18 7 9 mph 1015.9mb 54f 64f
12:12 5 6 mph 1015.7mb 54f 64f
12:06 5 6 mph 1015.7mb 54f 63f
12:00 5 6 mph 1015.7mb 54f 63f
mié 07/19 11:54 5 6 mph 1015.6mb 54f 63f
11:48 5 7 mph 1015.6mb 54f 63f
11:36  -  2 mph 1015.6mb 54f 61f
11:30  -  2 mph 1015.6mb 54f 62f
11:24 3 5 mph 1015.6mb 54f 62f
11:18 2 2 mph 1015.6mb 54f 61f
11:12  -  2 mph 1015.6mb 54f 60f
11:06 1 5 mph 1015.6mb 54f 59f
11:00 3 5 mph 1015.6mb 54f 60f
10:54 2 3 mph 1015.6mb 54f 60f
10:48 2 5 mph 1015.5mb 54f 60f
10:36 1 2 mph 1015.5mb 54f 59f
10:30 2 3 mph 1015.5mb 54f 60f
10:24  -  2 mph 1015.5mb 54f 60f
10:18 2 5 mph 1015.4mb 54f 61f
10:12 2 3 mph 1015.4mb 54f 61f
10:06 3 5 mph 1015.4mb 54f 61f
10:00 2 3 mph 1015.4mb 54f 61f
9:54 3 5 mph 1015.3mb 54f 61f
9:48 2 2 mph 1015.3mb 54f 61f
9:36 2 2 mph 1015.2mb 54f 60f
9:30 2 3 mph 1015.2mb 54f 60f
9:24 1 3 mph 1015.2mb 54f 60f
9:18 2 3 mph 1015.1mb 54f 60f
9:12 2 5 mph 1015.1mb 53f 60f
9:06 2 3 mph 1015.1mb 53f 60f
9:00 2 5 mph 1015.1mb 53f 60f
8:54 2 6 mph 1015.1mb 53f 59f
8:48 3 6 mph 1015.1mb 53f 59f
8:36 3 5 mph 1015.1mb 53f 59f
8:30 3 5 mph 1015.1mb 54f 58f
8:24 3 5 mph 1015.1mb 54f 59f
8:18 3 6 mph 1015.1mb 54f 58f
8:12 3 6 mph 1015.1mb 54f 58f
8:06 3 6 mph 1015.2mb 54f 58f
8:00 3 5 mph - - 58f
7:54 2 6 mph 1015.2mb 54f 58f
7:48 2 5 mph 1015.2mb 54f 58f
7:36 3 5 mph 1015.3mb 54f 58f
7:30 3 5 mph 1015.3mb 54f 58f
7:24 3 5 mph 1015.3mb 54f 58f
7:18 3 5 mph 1015.3mb 54f 60f
7:12  -  0 mph 1015.3mb 54f 61f
7:06  -  1 mph 1015.4mb 54f 61f
7:00  -  2 mph 1015.4mb 54f 60f
6:54 1 2 mph 1015.3mb 54f 59f
6:48 2 3 mph 1015.3mb 54f 60f
6:36 3 5 mph 1015.2mb 54f 59f
6:30 3 5 mph 1015.2mb 54f 59f
6:24 3 5 mph 1015.3mb 54f 59f
6:18 3 5 mph 1015.4mb 54f 59f
6:12 5 6 mph 1015.5mb 54f 58f
6:06 3 5 mph 1015.5mb 55f 58f
6:00 3 5 mph 1015.6mb 54f 59f
5:54 3 6 mph 1015.7mb 54f 59f
5:48 6 7 mph 1015.7mb 54f 58f
5:36 1 2 mph 1015.8mb 54f 59f
5:30  -  2 mph 1015.8mb 54f 60f
5:24  -  1 mph 1015.9mb 54f 60f
5:18  -  1 mph 1016mb 54f 60f
5:12  -  2 mph 1016mb 54f 60f
5:06 2 6 mph 1016.2mb 54f 60f
5:00 3 6 mph 1016.3mb 54f 60f
4:54 5 8 mph 1016.3mb 54f 60f
4:48 6 7 mph 1016.4mb 54f 61f
4:36 6 7 mph 1016.6mb 54f 61f
4:30 6 7 mph 1016.6mb 55f 62f
4:24 5 6 mph 1016.7mb 55f 62f
4:18 6 7 mph 1016.7mb 55f 62f
4:12 6 9 mph 1016.8mb 55f 61f
4:06 7 9 mph 1016.9mb 55f 61f
4:00 7 9 mph 1016.9mb 55f 61f
3:54 8 10 mph 1017mb 54f 61f
3:48 7 9 mph 1017mb 54f 62f
3:36 7 11 mph 1017.2mb 53f 62f
3:30 8 10 mph 1017.1mb 53f 64f
3:24 6 9 mph 1017.2mb 53f 64f
3:18 5 10 mph 1017.1mb 53f 64f
3:12 6 11 mph 1017.2mb 52f 65f
3:06 8 13 mph 1017.3mb 52f 65f
3:00 9 11 mph 1017.4mb 53f 65f
2:54 7 11 mph 1017.5mb 53f 65f
2:48 7 9 mph 1017.5mb 53f 65f
2:36 6 9 mph 1017.7mb 53f 65f
2:30 5 8 mph 1017.7mb 53f 64f
2:24 3 5 mph 1017.7mb 53f 65f
2:18 3 6 mph 1017.8mb 53f 64f
2:12 3 7 mph 1017.9mb 54f 63f
2:06 6 9 mph 1018mb 55f 63f
2:00 6 9 mph 1018.2mb 55f 62f
1:54 6 9 mph 1018.2mb 55f 62f
1:48 6 9 mph 1018.3mb 55f 62f
1:36 8 10 mph 1018.4mb 55f 62f
1:30 7 10 mph 1018.4mb 55f 62f
1:24 8 11 mph 1018.5mb 55f 62f
1:18 6 9 mph 1018.5mb 54f 62f
1:12 5 9 mph 1018.5mb 55f 62f
1:06 7 11 mph 1018.6mb 55f 61f
1:00 6 11 mph 1018.6mb 55f 62f
12:54 8 11 mph 1018.6mb 55f 61f
12:48 9 13 mph 1018.7mb 55f 61f
12:36 6 10 mph 1018.7mb 55f 61f
12:30 7 11 mph 1018.8mb 55f 61f
12:24 10 14 mph 1018.8mb 55f 61f
12:18 10 16 mph 1018.9mb 55f 61f
12:12 10 14 mph 1018.9mb 54f 60f
12:06 9 13 mph 1019mb 54f 60f
12:00 8 13 mph 1019mb 54f 60f
11:54 9 13 mph 1019mb 53f 60f
11:48 9 14 mph 1019mb 54f 60f
11:36 9 14 mph 1019.1mb 54f 60f
11:30 10 14 mph 1019.2mb 54f 60f
11:24 8 11 mph 1019.1mb 54f 60f
11:18 8 13 mph 1019.2mb 54f 60f
11:12 8 14 mph 1019.2mb 54f 60f
11:06 13 17 mph 1019.3mb 55f 60f
11:00 11 16 mph 1019.3mb 55f 61f
10:54 11 16 mph 1019.2mb 55f 60f
10:48 14 20 mph 1019.2mb 55f 60f
10:36 15 18 mph 1019.2mb 55f 59f
10:30 13 18 mph 1019.2mb 55f 60f
10:24 13 17 mph 1019.3mb 55f 59f
10:18 13 16 mph 1019.3mb 55f 59f
10:12 14 17 mph 1019.3mb 55f 59f
10:06 14 18 mph 1019.3mb 54f 58f
10:00 13 17 mph 1019.4mb 55f 58f
9:54 11 14 mph 1019.3mb 55f 58f
9:48 10 15 mph 1019.3mb 55f 58f
9:36 11 14 mph 1019.3mb 55f 58f
9:30 11 16 mph 1019.3mb 55f 57f
9:24 11 17 mph 1019.4mb 55f 57f
9:18 13 16 mph 1019.4mb 55f 57f
9:12 13 16 mph 1019.4mb 55f 57f
9:06 14 18 mph 1019.4mb 55f 57f
9:00 13 16 mph 1019.4mb 55f 57f